User: anonymous   Login
Location: St. Louis
(38.6270°N, 90.1994°W)
Time: 12:32:38
(UTC-06:00)
Language:

Transit 2A Rocket - Orbit

View from above orbital plane
View from above orbital plane
View from above satellite
View from above satellite

Ground track
Ground track

The orbit data is extracted from the following two-line orbital elements,

1 00047U 60007C   21339.92467146  .00000018  00000-0  28938-4 0  9994
2 00047  66.6640 160.4419 0234690 270.7408  86.6813 14.42199750212030
Epoch (UTC): 05 December 2021 22:11:31
Eccentricity: 0.0234690
inclination: 66.6640°
perigee height: 584 km
apogee height: 918 km
right ascension of ascending node: 160.4419°
argument of perigee: 270.7408°
revolutions per day: 14.42199750
mean anomaly at epoch: 86.6813°
orbit number at epoch: 21203

The dashed part of the orbit path shows where the satellite is in the earth's shadow,  

DLR